TimeEDT,TemperatureF,Dew PointF,Humidity,Sea Level PressureIn,VisibilityMPH,Wind Direction,Wind SpeedMPH,Gust SpeedMPH,PrecipitationIn,Events,Conditions,WindDirDegrees,DateUTC
12:53 AM,43.0,39.0,86,30.15,10.0,South,8.1,-,0.00,Rain,Light Rain,170,2012-10-08 04:53:00
1:53 AM,43.0,39.0,86,30.15,10.0,ENE,3.5,-,0.00,,Overcast,70,2012-10-08 05:53:00
2:53 AM,43.0,39.0,86,30.16,10.0,SSE,4.6,-,N/A,,Overcast,160,2012-10-08 06:53:00
3:53 AM,44.1,39.0,82,30.15,10.0,South,6.9,-,N/A,,Overcast,180,2012-10-08 07:53:00
4:53 AM,43.0,39.0,86,30.17,10.0,SSW,9.2,-,0.00,,Overcast,200,2012-10-08 08:53:00
5:53 AM,43.0,39.0,86,30.17,10.0,South,10.4,-,0.00,,Overcast,180,2012-10-08 09:53:00
6:53 AM,43.0,37.9,82,30.19,10.0,South,10.4,-,N/A,,Overcast,190,2012-10-08 10:53:00
7:53 AM,42.1,39.0,89,30.20,10.0,South,11.5,-,0.01,,Overcast,180,2012-10-08 11:53:00
8:53 AM,43.0,39.0,86,30.22,9.0,South,10.4,-,N/A,,Overcast,190,2012-10-08 12:53:00
9:53 AM,44.1,39.9,85,30.24,10.0,South,10.4,-,0.00,Rain,Light Rain,190,2012-10-08 13:53:00
10:53 AM,48.9,41.0,74,30.23,10.0,South,11.5,-,0.00,,Overcast,190,2012-10-08 14:53:00
11:29 AM,48.2,41.0,76,30.22,10.0,SW,9.2,-,N/A,,Overcast,220,2012-10-08 15:29:00
11:53 AM,50.0,39.9,68,30.23,10.0,SSW,11.5,-,N/A,,Overcast,210,2012-10-08 15:53:00
12:07 PM,48.2,39.2,71,30.22,10.0,WSW,8.1,-,N/A,,Overcast,240,2012-10-08 16:07:00
12:16 PM,48.2,39.2,71,30.22,10.0,WSW,8.1,-,N/A,,Overcast,250,2012-10-08 16:16:00
12:53 PM,51.1,39.9,66,30.24,10.0,West,11.5,-,N/A,,Scattered Clouds,260,2012-10-08 16:53:00
1:53 PM,48.9,39.9,71,30.22,10.0,West,8.1,-,N/A,,Overcast,260,2012-10-08 17:53:00
2:53 PM,50.0,39.0,66,30.22,10.0,SW,6.9,-,N/A,,Overcast,230,2012-10-08 18:53:00
3:53 PM,50.0,37.9,63,30.21,10.0,South,3.5,-,N/A,,Overcast,190,2012-10-08 19:53:00
4:53 PM,51.1,36.0,56,30.21,10.0,Variable,6.9,-,N/A,,Mostly Cloudy,0,2012-10-08 20:53:00
5:53 PM,50.0,34.0,54,30.21,10.0,South,6.9,-,N/A,,Overcast,180,2012-10-08 21:53:00
6:53 PM,46.9,35.1,63,30.21,10.0,South,5.8,-,N/A,,Mostly Cloudy,170,2012-10-08 22:53:00
7:53 PM,45.0,37.0,74,30.21,10.0,Calm,Calm,-,N/A,,Overcast,0,2012-10-08 23:53:00
8:53 PM,43.0,35.1,74,30.22,10.0,SSE,5.8,-,N/A,,Partly Cloudy,160,2012-10-09 00:53:00
10:53 PM,42.1,34.0,73,30.23,10.0,South,6.9,-,N/A,,Clear,180,2012-10-09 02:53:00
11:53 PM,41.0,34.0,76,30.23,10.0,SSW,5.8,-,N/A,,Clear,200,2012-10-09 03:53:00